FLOCK 2K-14

Last updated on Wed Feb 14 2018 16:20:54 GMT+0000 (Coordinated Universal Time)

1 42892U 17042BV 18044.95922861 .00006800 00000-0 19828-3 0 9993 2 42892 96.9929 307.8456 0012490 176.4813 183.6521 15.35584721 32721
UTC large
Height (km)
Speed (km/s)
/
Latitude / Longitude
Inclination (degrees)
Orbital Period (minutes)
Azimuth
Elevation
Range (km)
Doppler Factor

Next 0 passes for location: London (51.5072 / 0.1276)

Sorry there are no passes over London.